Location: Killam
(52.7910°N, 111.8608°W)
Time: 22:44:06
(UTC+00:00)

Vanguard 3 - Pass Details

Date: 20 February 2026
Orbit: 507 x 3205 km, 33.4° (Epoch: 11 March)

Event Time Altitude Azimuth Distance (km) Brightness Sun altitude
Rises 00:54:21 0° 239° (WSW) 4,974 13.1 -1.8°
Reaches altitude 10° 00:59:58 10° 219° (SW) 3,346 11.2 -2.6°
Maximum altitude 01:03:48 14° 190° (S) 2,603 10.1 -3.2°
Drops below altitude 10° 01:06:53 10° 159° (SSE) 2,559 9.7 -3.6°
Sets 01:10:11 0° 133° (SE) 3,146 9.8 -4.1°
